Location: ???????
(56.2167°N, 38.0500°E)
Time: 02:55:47
(UTC+00:00)

NOSS 2-2 (D) - Pass Details

Date: 19 May 2025
Orbit: 390 x 1716 km, 63.3° (Epoch: 15 June)

Event Time Altitude Azimuth Distance (km) Brightness Sun altitude
Rises 22:07:38 0° 306° (NW) 2,399 7.0 -13.3°
Reaches altitude 10° 22:09:31 10° 310° (NW) 1,607 6.1 -13.2°
Maximum altitude 22:12:58 65° 33° (NNE) 592 3.7 -13.1°
Drops below altitude 10° 22:17:32 10° 116° (ESE) 2,103 6.1 -13.0°
Sets 22:20:18 0° 119° (ESE) 3,236 7.1 -12.9°
